LZB1 LBPD-LBSF

Flight info

Callsign LZB1
Flight time 0h 34m
Altitude 16000
Route RUMEN
Aircraft A320/M-SDE3FGHIRWY/LB1

Departure

Time 2026-05-06 18:19
Airport Plovdiv International Airport (LBPD)

Arrival

Time 2026-05-06 18:53
Airport Sofia Airport (LBSF)
Time Latitude Longitude Altitude Speed Heading
2026-05-06 18:07 42.07609 24.84283 575 ft 0 kts 218°
2026-05-06 18:15 42.07598 24.84256 577 ft 5 kts 239°
2026-05-06 18:16 42.07589 24.84252 576 ft 1 kts 200°
2026-05-06 18:16 42.07551 24.84234 575 ft 16 kts 173°
2026-05-06 18:16 42.07492 24.84241 578 ft 2 kts 169°
2026-05-06 18:16 42.07478 24.84180 577 ft 18 kts 273°
2026-05-06 18:17 42.07458 24.84060 576 ft 5 kts 212°
2026-05-06 18:17 42.07446 24.84047 574 ft 1 kts 220°
2026-05-06 18:17 42.07398 24.84028 578 ft 9 kts 156°
2026-05-06 18:17 42.07358 24.84081 576 ft 7 kts 109°
2026-05-06 18:18 42.07319 24.84138 577 ft 9 kts 145°
2026-05-06 18:18 42.07291 24.84186 578 ft 10 kts 126°
2026-05-06 18:18 42.07095 24.84518 585 ft 93 kts 126°
2026-05-06 18:18 42.06540 24.85494 777 ft 155 kts 127°
2026-05-06 18:19 42.05819 24.86754 1454 ft 182 kts 127°
2026-05-06 18:19 42.04993 24.88192 2094 ft 215 kts 128°
2026-05-06 18:19 42.03945 24.89961 2446 ft 262 kts 129°
2026-05-06 18:19 42.02551 24.91691 3326 ft 281 kts 149°
2026-05-06 18:20 42.00896 24.93186 4383 ft 301 kts 146°
2026-05-06 18:20 41.99125 24.94896 5157 ft 319 kts 143°
2026-05-06 18:20 41.97280 24.96791 5514 ft 357 kts 142°
2026-05-06 18:20 41.95286 24.98954 6293 ft 363 kts 140°
2026-05-06 18:21 41.93499 25.01027 8510 ft 338 kts 139°
2026-05-06 18:21 41.91634 25.03268 8469 ft 381 kts 137°
2026-05-06 18:21 41.89788 25.05898 9421 ft 367 kts 122°
2026-05-06 18:21 41.88518 25.08891 10418 ft 389 kts 116°
2026-05-06 18:22 41.88478 25.08993 10435 ft 390 kts 116°
2026-05-06 18:23 41.87964 25.10308 10771 ft 391 kts 118°
2026-05-06 18:23 41.86457 25.13391 11588 ft 402 kts 122°
2026-05-06 18:24 41.85281 25.16825 12211 ft 414 kts 105°
2026-05-06 18:24 41.84851 25.20746 12298 ft 433 kts 90°
2026-05-06 18:24 41.84813 25.24670 13708 ft 413 kts 89°
2026-05-06 18:24 41.84789 25.28387 13832 ft 387 kts 86°
2026-05-06 18:25 41.85277 25.31794 13715 ft 361 kts 66°
2026-05-06 18:25 41.86571 25.34575 13585 ft 337 kts 44°
2026-05-06 18:25 41.88379 25.36309 13453 ft 316 kts 21°
2026-05-06 18:25 41.90464 25.37048 13309 ft 299 kts
2026-05-06 18:26 41.92488 25.37511 13003 ft 292 kts
2026-05-06 18:26 41.94488 25.37949 12587 ft 290 kts
2026-05-06 18:26 41.96450 25.38379 12148 ft 288 kts
2026-05-06 18:26 41.98427 25.38816 11705 ft 287 kts
2026-05-06 18:27 42.00391 25.39255 11272 ft 286 kts
2026-05-06 18:27 42.02344 25.39697 10832 ft 284 kts
2026-05-06 18:27 42.04295 25.40143 10537 ft 285 kts
2026-05-06 18:27 42.06251 25.40588 10505 ft 286 kts
2026-05-06 18:28 42.08098 25.41573 10508 ft 290 kts 33°
2026-05-06 18:28 42.09473 25.43608 10508 ft 296 kts 59°
2026-05-06 18:28 42.10055 25.46263 10509 ft 300 kts 85°
2026-05-06 18:28 42.09731 25.49035 10508 ft 304 kts 111°
2026-05-06 18:29 42.08576 25.51356 10513 ft 305 kts 137°
2026-05-06 18:29 42.06753 25.52846 10511 ft 305 kts 163°
2026-05-06 18:29 42.04670 25.53149 10513 ft 302 kts 189°
2026-05-06 18:29 42.02711 25.52242 10513 ft 298 kts 214°
2026-05-06 18:30 42.01257 25.50321 10509 ft 293 kts 240°
2026-05-06 18:30 42.00535 25.47801 10511 ft 289 kts 263°
2026-05-06 18:30 42.00579 25.45140 10511 ft 285 kts 285°
2026-05-06 18:30 42.01211 25.42615 10513 ft 284 kts 291°
2026-05-06 18:31 42.01891 25.40120 10512 ft 285 kts 291°
2026-05-06 18:31 42.02569 25.37617 10509 ft 284 kts 291°
2026-05-06 18:31 42.03235 25.35130 10507 ft 283 kts 291°
2026-05-06 18:31 42.03903 25.32634 10510 ft 284 kts 291°
2026-05-06 18:32 42.04574 25.30140 10511 ft 284 kts 291°
2026-05-06 18:32 42.05244 25.27642 10507 ft 284 kts 291°
2026-05-06 18:32 42.05910 25.25143 10507 ft 284 kts 291°
2026-05-06 18:32 42.06574 25.22644 10508 ft 284 kts 290°
2026-05-06 18:33 42.07238 25.20143 10508 ft 284 kts 290°
2026-05-06 18:33 42.07903 25.17638 10511 ft 284 kts 290°
2026-05-06 18:33 42.08568 25.15140 10508 ft 284 kts 290°
2026-05-06 18:33 42.09236 25.12639 10509 ft 284 kts 290°
2026-05-06 18:34 42.09904 25.10134 10511 ft 284 kts 290°
2026-05-06 18:34 42.10573 25.07629 10507 ft 284 kts 290°
2026-05-06 18:34 42.11239 25.05125 10506 ft 284 kts 290°
2026-05-06 18:34 42.11903 25.02623 10505 ft 284 kts 290°
2026-05-06 18:35 42.12566 25.00116 10510 ft 284 kts 290°
2026-05-06 18:35 42.13226 24.97612 10506 ft 284 kts 290°
2026-05-06 18:35 42.13886 24.95104 10509 ft 284 kts 290°
2026-05-06 18:35 42.14547 24.92597 10509 ft 284 kts 290°
2026-05-06 18:36 42.15211 24.90085 10507 ft 284 kts 290°
2026-05-06 18:36 42.15873 24.87574 10508 ft 284 kts 290°
2026-05-06 18:36 42.16536 24.85060 10507 ft 284 kts 290°
2026-05-06 18:36 42.17197 24.82548 10507 ft 285 kts 290°
2026-05-06 18:37 42.17858 24.80029 10506 ft 285 kts 290°
2026-05-06 18:37 42.18292 24.78366 10507 ft 285 kts 290°
2026-05-06 18:37 42.19172 24.74992 10505 ft 285 kts 290°
2026-05-06 18:37 42.19830 24.72476 10508 ft 285 kts 289°
2026-05-06 18:38 42.20491 24.69950 10509 ft 285 kts 289°
2026-05-06 18:38 42.21150 24.67433 10509 ft 285 kts 289°
2026-05-06 18:38 42.21808 24.64913 10504 ft 285 kts 289°
2026-05-06 18:38 42.22466 24.62386 10506 ft 285 kts 289°
2026-05-06 18:39 42.23123 24.59861 10505 ft 285 kts 289°
2026-05-06 18:39 42.23780 24.57336 10508 ft 286 kts 289°
2026-05-06 18:39 42.24439 24.54806 10509 ft 286 kts 289°
2026-05-06 18:40 42.25755 24.49741 10514 ft 286 kts 289°
2026-05-06 18:40 42.26411 24.47210 10511 ft 286 kts 289°
2026-05-06 18:40 42.27065 24.44677 10517 ft 286 kts 289°
2026-05-06 18:40 42.27720 24.42140 10514 ft 286 kts 289°
2026-05-06 18:41 42.28163 24.40422 10515 ft 286 kts 289°
2026-05-06 18:41 42.28814 24.37886 10515 ft 286 kts 289°
2026-05-06 18:41 42.29466 24.35345 10515 ft 286 kts 289°
2026-05-06 18:41 42.30119 24.32803 10518 ft 286 kts 289°
2026-05-06 18:42 42.30772 24.30268 10519 ft 286 kts 289°
2026-05-06 18:42 42.31418 24.27720 10514 ft 286 kts 289°
2026-05-06 18:42 42.32061 24.25187 10229 ft 284 kts 289°
2026-05-06 18:42 42.32703 24.22675 9785 ft 282 kts 289°
2026-05-06 18:43 42.33494 24.20260 9285 ft 281 kts 303°
2026-05-06 18:43 42.34814 24.18331 8796 ft 280 kts 316°
2026-05-06 18:43 42.36242 24.16533 8288 ft 280 kts 316°
2026-05-06 18:43 42.37668 24.14742 7772 ft 280 kts 316°
2026-05-06 18:44 42.39097 24.12954 7270 ft 279 kts 316°
2026-05-06 18:44 42.40520 24.11172 6774 ft 279 kts 316°
2026-05-06 18:44 42.41939 24.09388 6269 ft 279 kts 316°
2026-05-06 18:44 42.43361 24.07599 6014 ft 280 kts 316°
2026-05-06 18:45 42.44787 24.05804 5998 ft 280 kts 316°
2026-05-06 18:45 42.46224 24.03997 6003 ft 281 kts 316°
2026-05-06 18:45 42.47656 24.02193 6004 ft 281 kts 316°
2026-05-06 18:45 42.49089 24.00386 6001 ft 281 kts 316°
2026-05-06 18:46 42.50522 23.98577 6004 ft 281 kts 316°
2026-05-06 18:46 42.51946 23.96777 6003 ft 280 kts 316°
2026-05-06 18:46 42.53372 23.94972 6003 ft 280 kts 316°
2026-05-06 18:46 42.54796 23.93171 6002 ft 280 kts 316°
2026-05-06 18:47 42.56221 23.91370 6003 ft 280 kts 316°
2026-05-06 18:47 42.57648 23.89566 6004 ft 280 kts 315°
2026-05-06 18:47 42.59075 23.87761 6003 ft 280 kts 315°
2026-05-06 18:47 42.60499 23.85958 6003 ft 280 kts 315°
2026-05-06 18:48 42.61920 23.84154 6004 ft 279 kts 315°
2026-05-06 18:48 42.63338 23.82353 6002 ft 279 kts 315°
2026-05-06 18:48 42.64760 23.80547 6006 ft 280 kts 315°
2026-05-06 18:48 42.66175 23.78744 6005 ft 278 kts 314°
2026-05-06 18:49 42.67252 23.76734 6002 ft 274 kts 291°
2026-05-06 18:49 42.67647 23.74230 5993 ft 271 kts 273°
2026-05-06 18:49 42.67800 23.71682 5666 ft 271 kts 272°
2026-05-06 18:49 42.67956 23.69127 5320 ft 272 kts 273°
2026-05-06 18:50 42.68116 23.66572 4969 ft 272 kts 273°
2026-05-06 18:50 42.68277 23.64013 4616 ft 271 kts 272°
2026-05-06 18:50 42.68436 23.61462 4255 ft 271 kts 273°
2026-05-06 18:50 42.68594 23.58912 3899 ft 271 kts 273°
2026-05-06 18:51 42.68751 23.56375 3551 ft 268 kts 273°
2026-05-06 18:51 42.68900 23.53974 3223 ft 239 kts 273°
2026-05-06 18:51 42.69031 23.51866 2927 ft 210 kts 273°
2026-05-06 18:51 42.69145 23.49999 2674 ft 187 kts 272°
2026-05-06 18:52 42.69246 23.48335 2432 ft 166 kts 272°
2026-05-06 18:52 42.69334 23.46877 2228 ft 144 kts 275°
2026-05-06 18:52 42.69411 23.45579 2015 ft 133 kts 277°
2026-05-06 18:52 42.69489 23.44345 1834 ft 131 kts 277°
2026-05-06 18:53 42.69564 23.43117 1762 ft 125 kts 275°
2026-05-06 18:53 42.69628 23.42087 1753 ft 87 kts 274°
2026-05-06 18:53 42.69663 23.41494 1755 ft 42 kts 275°
2026-05-06 18:53 42.69686 23.41146 1750 ft 34 kts 276°
2026-05-06 18:54 42.69653 23.40856 1753 ft 25 kts 246°
2026-05-06 18:54 42.69614 23.40731 1748 ft 7 kts 245°
2026-05-06 18:54 42.69593 23.40697 1748 ft 4 kts 207°
2026-05-06 18:54 42.69542 23.40715 1751 ft 12 kts 138°
2026-05-06 18:55 42.69514 23.40869 1753 ft 22 kts 92°
2026-05-06 18:55 42.69500 23.41086 1753 ft 19 kts 96°
2026-05-06 18:55 42.69481 23.41175 1751 ft 2 kts 139°
2026-05-06 18:55 42.69437 23.41204 1753 ft 10 kts 172°
2026-05-06 18:56 42.69367 23.41194 1751 ft 10 kts 188°
2026-05-06 18:56 42.69298 23.41175 1753 ft 10 kts 190°
2026-05-06 18:56 42.69219 23.41156 1746 ft 12 kts 171°
2026-05-06 18:56 42.69138 23.41193 1753 ft 12 kts 162°
2026-05-06 18:57 42.69068 23.41224 1748 ft 7 kts 162°
2026-05-06 18:57 42.69019 23.41246 1751 ft 7 kts 158°
2026-05-06 18:57 42.68984 23.41280 1750 ft 0 kts 140°
2026-05-06 18:57 42.68983 23.41281 1750 ft 1 kts 140°
2026-05-06 18:58 42.68979 23.41285 1748 ft 0 kts 140°
2026-05-06 19:00 42.68971 23.41294 1753 ft 2 kts 140°
2026-05-06 19:00 42.68969 23.41298 1753 ft 0 kts 139°